Location: Monte Entu
(40.0333°N, 8.5333°E)
Time: 12:32:33
(UTC+00:00)

Daily predictions for brighter satellites

Satellite Brightness Start Highest point End
(mag) Time Altitude Azimuth Time Altitude Azimuth Time Altitude Azimuth
COSMOS 2428 3.3 17:12:46 10° S 17:17:55 37° ESE 17:23:05 10° NE
Cosmos 2333 4.3 17:13:03 10° SSW 17:18:40 90° WNW 17:24:21 10° NNE
CZ-4C R/B 3.5 17:18:44 10° NNE 17:22:10 40° E 17:25:27 10° S
COSMO-SKYMED 1 2.5 17:23:33 10° NNE 17:27:54 69° ESE 17:32:12 10° S
Cosmos 1825 3.4 17:26:04 10° SSW 17:29:36 45° W 17:33:09 10° N
SL-4 R/B 2.8 17:26:37 10° NW 17:29:42 27° NNE 17:32:54 10° E
Cosmos 1726 Rocket 3.8 17:26:13 10° N 17:30:33 77° W 17:34:51 10° S
USA 215 3.6 17:24:51 10° ESE 17:31:03 47° NNE 17:37:16 10° NW
BREEZE-M DEB (TANK) 4.1 17:28:39 10° WNW 17:32:56 31° SW 17:35:17 10° SSE
IRIDIUM 106 4.4 17:28:16 10° N 17:33:26 57° E 17:38:32 10° SSE
S3M 4.2 17:32:07 10° SSE 17:38:15 52° E 17:44:24 10° NNE
Cosmos 2322 3.7 17:33:06 10° SSW 17:38:48 77° ESE 17:44:31 10° NNE
Radarsat Rocket 4.4 17:34:57 10° SSE 17:41:03 80° WSW 17:47:58 10° NNW
Atlas Centaur 2 3.8 17:34:42 10° WSW 17:41:24 41° S 17:49:02 10° ESE
Cosmos 540 Rocket 4.4 17:36:40 10° NNW 17:41:39 52° WSW 17:46:35 10° S
Cosmos 1626 Rocket 3.8 17:39:06 10° SSE 17:43:11 44° E 17:47:19 10° NNE
ATLAS 2AS CENTAUR R/B 4.4 17:40:43 10° NW 17:46:49 35° WSW 17:52:38 10° S
Cosmos 1340 2.7 17:45:51 10° NNW 17:49:30 76° W 17:53:09 10° S
Cosmos 1844 Rocket 4.2 17:45:18 10° NW 17:50:26 39° WSW 17:55:33 10° S
CZ-4 R/B 2.4 17:49:04 10° SE 17:52:23 24° ENE 17:55:40 10° NNE
PAYLOAD B 4.2 17:51:59 10° SSE 17:57:25 64° ENE 18:02:51 10° N
Cosmos 841 Rocket 4.2 17:58:39 10° NNW 18:03:49 58° WSW 18:08:55 10° S
Cosmos 1814 Rocket 4.0 17:58:52 10° NNW 18:04:12 65° ENE 18:09:29 10° SSE
Cosmos 2058 3.4 18:03:25 10° SSE 18:07:13 35° E 18:11:02 10° NNE
PSLV R/B 3.5 18:03:55 10° SSE 18:07:33 68° ENE 18:11:18 10° N
Cosmos 2315 Rocket 4.1 18:04:27 10° SSE 18:10:37 56° E 18:16:50 10° NNE
Okean O Rocket 2.0 18:08:10 10° SE 18:12:14 38° ENE 18:16:20 10° N
YAOGAN 1 2.4 18:08:18 10° SSE 18:12:34 72° ENE 18:16:53 10° N
CZ-4B R/B 3.1 18:08:31 10° SSE 18:13:47 62° ENE 18:19:12 10° N
Cosmos 2219 Rocket 3.3 18:08:45 10° SW 18:14:03 44° WNW 18:19:25 10° N
SL-24 R/B - RUBIN 2 3.9 18:11:01 10° S 18:15:05 43° ESE 18:16:49 29° ENE
Feng Yun 1-1 Rocket 4.5 18:12:40 10° SE 18:17:51 43° ENE 18:22:57 10° N
H-2A R/B 4.3 18:14:52 10° S 18:18:34 18° SE 18:20:17 17° ESE
BlueWalker 3 2.7 18:15:31 10° NW 18:19:05 33° NNE 18:19:40 32° NE
Okean 1-7 Rocket 3.9 18:17:48 10° SSW 18:22:12 68° W 18:26:40 10° N
Cosmos 1356 2.9 18:19:22 10° N 18:22:25 86° E 18:25:28 10° S
Cosmos 1606 2.9 18:19:51 10° NNW 18:23:40 69° W 18:27:26 10° S
Lacrosse 5 4.2 18:21:44 10° NW 18:24:00 13° NNW 18:26:18 10° NNE
Cosmos-2242 2.9 18:21:06 10° N 18:25:17 56° E 18:29:27 10° SSE
Cosmos 1745 Rocket 4.2 18:19:34 10° NNW 18:25:45 71° W 18:31:51 10° S
Cosmos 2237 Rocket 2.2 18:24:36 10° S 18:30:08 56° ESE 18:33:55 21° NE
BREEZE-M DEB (TANK) 4.1 18:16:08 10° WSW 18:30:51 57° NNW 18:33:28 25° NE
Cosmos 1400 Rocket 2.8 18:28:07 10° S 18:31:55 53° E 18:32:09 52° E
Cosmos 968 Rocket 4.1 18:28:08 10° SSW 18:33:16 58° WNW 18:38:27 10° N
Lacrosse 5 rocket 4.2 18:35:52 10° W 18:37:39 13° WSW 18:39:27 10° SSW
Cosmos 2278 Rocket 2.2 18:33:05 10° NNW 18:38:41 57° ENE 18:41:02 33° SE
Cosmos 1980 3.5 18:35:49 10° SSW 18:41:26 75° ESE 18:45:15 21° NNE
CSL-04 Debris 4.4 18:42:07 43° E 18:42:47 46° ENE 18:47:55 10° N
Cosmos 1709 Rocket 4.0 18:37:17 10° N 18:43:26 82° W 18:49:31 10° S
CSL-04 Rocket 4.0 18:43:56 41° ENE 18:43:56 41° ENE 18:48:37 10° N
Cosmos 2208 Rocket 3.8 18:42:25 10° NNW 18:47:37 74° ENE 18:49:57 34° SSE
Cosmos 1943 Rocket 3.5 18:45:35 10° N 18:48:38 23° NNE 18:48:38 23° NNE
IGS 5A 3.4 18:52:10 66° NNE 18:52:10 66° NNE 18:55:47 10° N
Cosmos 1356 Rocket 4.1 18:48:37 10° SSW 18:52:28 49° WNW 18:56:20 10° N
Cosmos 1570 Rocket 4.1 18:48:22 10° NNW 18:53:43 76° WSW 18:59:00 10° S
COSMOS 2428 4.4 18:57:11 10° WSW 19:02:10 31° WNW 19:07:11 10° N
Cosmos 2074 Rocket 4.3 18:57:55 10° N 19:03:04 48° NE 19:03:04 48° NE
SL-16 R/B 4.5 19:02:32 10° SSE 19:02:35 10° SSE 19:02:35 10° SSE
SJ 16-02 2.7 19:03:17 10° SSW 19:05:27 29° S 19:05:27 29° S
Cosmos 2184 Rocket 4.4 19:01:41 10° N 19:06:16 44° NE 19:06:16 44° NE
SL-4 R/B 3.1 19:05:35 10° WNW 19:08:15 39° W 19:08:15 39° W
USA 215 3.8 19:09:54 24° SSE 19:13:55 56° SW 19:20:22 10° NW
CZ-4 R/B 3.6 19:23:49 10° SSW 19:27:10 24° W 19:30:30 10° NW
Atlas Centaur 2 4.1 19:23:28 10° WSW 19:30:21 33° SSW 19:32:20 30° S
Okean O Rocket 4.2 19:45:37 10° SW 19:48:41 18° W 19:51:47 10° NW
Cosmos 2237 Rocket 4.3 20:10:11 10° WSW 20:14:34 22° NW 20:15:50 21° NW
Cosmos 2278 Rocket 4.4 20:18:23 10° WNW 20:22:14 19° W 20:23:00 18° WSW
